TimeMST,TemperatureF,Dew PointF,Humidity,Sea Level PressureIn,VisibilityMPH,Wind Direction,Wind SpeedMPH,Gust SpeedMPH,PrecipitationIn,Events,Conditions,WindDirDegrees,DateUTC
12:53 AM,10.0,6.1,84,30.69,10.0,East,4.6,-,N/A,,Clear,90,2013-11-23 07:53:00
1:53 AM,10.0,6.1,84,30.68,10.0,NE,3.5,-,N/A,,Clear,50,2013-11-23 08:53:00
2:53 AM,9.0,5.0,84,30.66,10.0,Calm,Calm,-,N/A,,Clear,0,2013-11-23 09:53:00
3:53 AM,8.1,3.9,83,30.66,10.0,ENE,6.9,-,N/A,,Clear,60,2013-11-23 10:53:00
4:53 AM,7.0,3.0,84,30.66,10.0,ENE,5.8,-,N/A,,Clear,70,2013-11-23 11:53:00
5:53 AM,7.0,3.0,84,30.65,10.0,ENE,8.1,-,N/A,,Clear,70,2013-11-23 12:53:00
6:53 AM,7.0,3.0,84,30.63,10.0,ENE,9.2,-,N/A,,Clear,60,2013-11-23 13:53:00
7:53 AM,7.0,3.0,84,30.62,10.0,East,4.6,-,N/A,,Clear,90,2013-11-23 14:53:00
8:53 AM,10.0,5.0,80,30.61,10.0,NE,4.6,-,N/A,,Clear,50,2013-11-23 15:53:00
9:53 AM,12.9,8.1,81,30.58,10.0,East,8.1,-,N/A,,Clear,80,2013-11-23 16:53:00
10:53 AM,18.0,10.0,71,30.54,10.0,NE,5.8,-,N/A,,Clear,40,2013-11-23 17:53:00
11:53 AM,21.0,12.0,68,30.50,10.0,SE,4.6,-,N/A,,Clear,130,2013-11-23 18:53:00
12:53 PM,26.1,12.9,58,30.44,10.0,Calm,Calm,-,N/A,,Clear,0,2013-11-23 19:53:00
1:53 PM,30.0,12.9,49,30.39,10.0,NE,4.6,-,N/A,,Clear,50,2013-11-23 20:53:00
2:53 PM,30.9,15.1,52,30.36,10.0,East,6.9,-,N/A,,Clear,90,2013-11-23 21:53:00
3:53 PM,30.0,16.0,56,30.33,10.0,East,4.6,-,N/A,,Clear,80,2013-11-23 22:53:00
4:53 PM,24.1,15.1,69,30.30,10.0,East,5.8,-,N/A,,Clear,80,2013-11-23 23:53:00
5:53 PM,21.9,15.1,75,30.28,10.0,East,4.6,-,N/A,,Clear,90,2013-11-24 00:53:00
6:53 PM,19.0,15.1,85,30.27,10.0,East,5.8,-,N/A,,Clear,100,2013-11-24 01:53:00
7:53 PM,18.0,14.0,84,30.23,10.0,SE,4.6,-,N/A,,Clear,130,2013-11-24 02:53:00
8:53 PM,19.9,14.0,78,30.19,10.0,SW,8.1,-,N/A,,Clear,220,2013-11-24 03:53:00
9:53 PM,26.1,17.1,69,30.16,10.0,WSW,12.7,-,N/A,,Clear,250,2013-11-24 04:53:00
10:53 PM,26.1,17.1,69,30.12,10.0,WSW,11.5,-,N/A,,Clear,240,2013-11-24 05:53:00
11:53 PM,30.0,17.1,59,30.09,10.0,SW,18.4,-,N/A,,Clear,220,2013-11-24 06:53:00